[[{"header":{"parameterUnit":"m.s-1","parameterCategory":1,"la1":30.2991,"la2":30.254,"lo1":-89.0895,"lo2":-89.0444,"dx":0.0017,"dy":0.0017,"nx":28,"ny":28,"refTime":"2023-01-23T03:00:00:Z","depth":0,"parameterNumber":2,"parameterNumberName":"U-component_of_WINDS"},"data":[0,0,0,0,0,0,0,0,0,0,0,0,0,0,0,0,0,0,0,0,0,0,0,0,0,0,0,0,0,0,0,0,0,0,0,0,0,0,0,0,0,0,0,0,0,0,0,0,0,0,0,0,0,0,0,0,0,0,2.9551,2.955,0,2.9478,2.9477,2.9477,2.9411,2.941,2.9409,2.9409,2.9333,2.9332,2.933,0,0,0,0,0,0,0,0,0,0,0,0,0,2.9631,2.963,2.9551,2.955,2.9549,2.9478,2.9477,2.9476,2.9411,2.941,2.9409,2.9408,2.9333,2.9332,2.933,0,0,0,0,0,0,0,0,0,0,0,0,0,2.9581,2.9629,2.9551,2.9508,2.9504,2.9479,2.9477,2.9476,2.9411,2.941,2.9409,2.9408,2.9334,2.9332,2.933,2.9342,0,0,2.9324,2.9323,0,0,0,0,0,0,0,0,2.9584,2.9578,2.9515,2.9511,2.9506,2.9452,2.9478,2.9431,2.9412,2.9446,2.9409,2.9407,2.9374,2.9368,2.9357,2.9338,2.9335,2.9324,2.9323,2.9322,2.9321,0,0,0,0,0,0,0,2.9587,2.9581,2.9522,2.9514,2.9509,2.9492,2.9483,2.9469,2.9417,2.9443,2.9438,2.9431,2.9371,2.9359,2.9355,2.9334,2.9324,2.9322,2.9321,2.932,2.9318,2.9319,0,0,0,0,0,0,2.9598,2.9584,2.9524,2.952,2.9543,2.9491,2.9482,2.9471,2.9417,2.9408,2.9432,2.9428,2.9363,2.9357,2.9352,2.936,2.9322,2.932,2.9319,2.9317,2.9318,2.9319,0,0,0,0,0,0,2.96,2.9593,2.9527,2.9551,2.9541,2.9491,2.9479,2.947,2.9458,2.9409,2.9399,2.9429,2.9362,2.9355,2.9344,2.9357,2.9319,2.9318,2.9315,2.9317,2.9318,2.9378,0,0,0,0,0,0,2.9602,2.9594,2.9599,2.9551,2.954,2.9522,2.948,2.9469,2.9455,2.945,2.9404,2.9395,2.9361,2.9347,2.9342,2.9353,2.9316,2.9314,2.9316,2.9318,2.9375,2.9382,2.9388,0,0,0,0,0,2.9605,2.9619,2.9599,2.9593,2.9545,2.9523,2.9516,2.9476,2.9457,2.946,2.9428,2.9397,2.9356,2.9347,2.9341,2.9351,2.9313,2.9315,2.9318,2.9372,2.938,2.9387,0,0,0,0,0,0,2.9669,2.9612,2.959,2.9588,2.9561,2.9512,2.9515,2.9487,2.9464,2.946,2.941,2.9401,2.9395,2.9372,2.9363,2.9358,2.933,2.9332,2.9374,2.9381,2.9387,2.9393,2.9314,0,0,0,0,0,2.9683,2.9671,2.9621,2.9624,2.9612,2.9566,2.9555,2.9526,2.9496,2.9484,2.9451,2.9422,2.9402,2.939,2.937,2.9371,2.9359,2.9375,2.9382,2.9387,2.9389,2.9386,2.9392,2.9327,2.9327,2.9327,0,0,2.9712,2.9679,2.9674,2.9636,2.9612,2.9599,2.9557,2.9545,2.9535,2.9482,2.947,2.9444,2.9408,2.9404,2.94,2.9384,2.9404,2.939,2.9395,2.9393,2.9389,2.9395,2.94,2.9329,2.9328,2.9328,0,0,2.9757,2.9732,2.9731,2.9707,2.967,2.9639,2.9639,2.9593,2.9575,2.9562,2.9521,2.9507,2.9475,2.9451,2.9434,2.9469,2.9438,2.9463,2.9496,2.9494,2.9499,2.9503,2.9513,2.9518,2.9465,2.9465,2.9465,0,2.9797,2.9777,2.9734,2.9724,2.9708,2.9659,2.9657,2.9636,2.9594,2.9584,2.9567,2.9525,2.9497,2.9485,2.9493,2.9482,2.9479,2.9468,2.9502,2.9505,2.9509,2.9518,2.9522,2.9468,2.9468,2.9468,2.9467,0,2.9827,2.9814,2.9817,2.9778,2.9762,2.9756,2.9712,2.9701,2.9673,2.9644,2.963,2.9595,2.9566,2.9561,2.9534,2.9544,2.9535,2.9511,2.9481,2.9519,2.9527,2.953,2.9473,2.9472,2.9471,2.947,0,0,2.9912,2.9848,2.985,2.983,2.9785,2.9773,2.9764,2.9736,2.9726,2.9699,2.9689,2.9662,2.9639,2.962,2.959,2.9588,2.9615,2.9563,2.9562,2.9573,2.9622,2.964,2.9645,2.9595,2.9595,2.9596,2.9624,0,2.9949,2.9931,2.9891,2.9886,2.9871,2.9824,2.9816,2.9786,2.9758,2.9741,2.971,2.9691,2.9662,2.965,2.9646,2.9613,2.9624,2.961,2.9584,2.9584,2.9594,2.9649,2.9669,2.9697,2.9627,2.9628,2.9628,0,2.9991,2.9965,2.9958,2.9912,2.9904,2.9898,2.9867,2.9852,2.9817,2.9796,2.9775,2.9741,2.9728,2.9701,2.9681,2.9673,2.9659,2.9641,2.9641,2.9637,2.9608,2.9645,2.9706,2.971,2.9633,2.9633,2.9632,0,3.0052,3.0016,3.0006,2.9991,2.9937,2.9934,2.9911,2.9875,2.9859,2.9832,2.9821,2.9793,2.9778,2.9756,2.9715,2.97,2.9699,2.9669,2.968,2.9681,2.9682,2.9683,2.974,2.9676,2.9676,2.9675,2.9675,0,3.0097,3.0094,3.0033,3.0027,3.0021,2.9975,2.997,2.9943,2.9911,2.9898,2.9855,2.9844,2.979,2.9772,2.974,2.9727,2.9721,2.9703,2.9694,2.9706,2.9709,2.9697,2.9693,2.9677,2.9676,2.9676,2.9676,0,3.0165,3.0124,3.011,3.0059,3.0046,3.0044,3.0,2.9992,2.9961,2.9944,2.9938,2.9889,2.9865,2.9822,2.9786,2.9764,2.9758,2.9743,2.977,2.9764,2.9777,2.9776,2.9828,2.9832,2.9766,2.9767,2.9768,0,3.0197,3.0193,3.0141,3.0129,3.0108,3.009,3.0073,3.0027,3.0011,2.997,2.9966,2.9939,2.9915,2.9879,2.9839,2.9811,2.9795,2.9815,2.979,2.9802,2.9793,2.9794,2.9792,2.9821,2.9822,2.9822,2.9823,0,3.0256,3.0235,3.0214,3.0184,3.0166,3.014,3.0113,3.0105,3.0052,3.0036,3.0011,2.9993,2.9955,2.9928,2.9894,2.9869,2.9837,2.9831,2.9832,2.9844,2.9859,2.9849,2.9784,2.983,2.9829,2.9829,2.9828,2.9828,3.0306,3.03,3.0262,3.0238,3.0212,3.0187,3.0176,3.0143,3.0121,3.0087,3.006,3.0037,3.0,2.995,2.9927,2.9907,2.9892,2.9894,2.9894,2.9895,2.9899,2.9862,2.9901,2.9901,2.99,2.99,2.99,0,3.0363,3.0335,3.0314,3.0276,3.0257,3.0228,3.0195,3.0181,3.0161,3.0129,3.0106,3.0076,3.0049,3.0006,2.9976,2.9968,2.9952,2.9961,2.9961,2.9955,2.9915,2.9917,2.9974,2.9974,2.9974,2.9974,2.9974,2.9974,3.039,3.0377,3.0352,3.0325,3.0297,3.0274,3.0257,3.0233,3.0207,3.0175,3.0152,3.0125,3.0088,3.0054,3.0027,3.0015,3.0005,3.0019,3.0002,2.9965,2.9958,2.9952,2.9953,3.0017,3.0017,3.0044,3.0044,3.0044]},{"header":{"parameterUnit":"m.s-1","parameterCategory":1,"la1":30.2991,"la2":30.254,"lo1":-89.0895,"lo2":-89.0444,"dx":0.0017,"dy":0.0017,"nx":28,"ny":28,"refTime":"2023-01-23T03:00:00:Z","depth":0,"parameterNumber":3,"parameterNumberName":"V-component_of_WINDS"},"data":[0,0,0,0,0,0,0,0,0,0,0,0,0,0,0,0,0,0,0,0,0,0,0,0,0,0,0,0,0,0,0,0,0,0,0,0,0,0,0,0,0,0,0,0,0,0,0,0,0,0,0,0,0,0,0,0,0,0,0.1799,0.18,0,0.1887,0.1888,0.1889,0.1939,0.1939,0.1939,0.1939,0.2033,0.2035,0.2038,0,0,0,0,0,0,0,0,0,0,0,0,0,0.1676,0.1678,0.1798,0.18,0.1801,0.1886,0.1888,0.1889,0.1939,0.1939,0.1939,0.1939,0.2032,0.2035,0.2038,0,0,0,0,0,0,0,0,0,0,0,0,0,0.1743,0.1679,0.1798,0.1836,0.184,0.1886,0.1888,0.1889,0.1939,0.1939,0.1939,0.1939,0.2031,0.2035,0.2038,0.2055,0,0,0.2049,0.205,0,0,0,0,0,0,0,0,0.1739,0.1748,0.1829,0.1833,0.1838,0.1902,0.1879,0.1945,0.1939,0.1901,0.1939,0.1939,0.1989,0.1996,0.2012,0.2059,0.2063,0.2049,0.2051,0.2053,0.2054,0,0,0,0,0,0,0,0.1735,0.1744,0.1834,0.183,0.1836,0.1849,0.1859,0.1892,0.1943,0.1905,0.1908,0.1918,0.1992,0.2009,0.2015,0.2065,0.2049,0.2052,0.2054,0.2056,0.2129,0.2129,0,0,0,0,0,0,0.1724,0.174,0.1831,0.1836,0.1788,0.1851,0.1862,0.1881,0.1943,0.1952,0.1918,0.192,0.2003,0.2011,0.2019,0.2042,0.2053,0.2056,0.2058,0.2129,0.2129,0.2129,0,0,0,0,0,0,0.1721,0.1731,0.1827,0.1789,0.1802,0.1853,0.1874,0.1883,0.19,0.1953,0.1962,0.1925,0.2003,0.2014,0.2045,0.2046,0.2058,0.2061,0.213,0.2129,0.2129,0.2089,0,0,0,0,0,0,0.1717,0.173,0.1736,0.1789,0.1804,0.1851,0.1874,0.1884,0.1905,0.1909,0.1962,0.1972,0.2004,0.204,0.2049,0.2051,0.2064,0.213,0.2129,0.2129,0.209,0.2087,0.2085,0,0,0,0,0,0.1713,0.1723,0.1736,0.1747,0.1813,0.1851,0.186,0.1897,0.1905,0.1912,0.1946,0.197,0.2044,0.2042,0.2053,0.2056,0.213,0.213,0.2129,0.2092,0.2088,0.2085,0,0,0,0,0,0,0.1671,0.173,0.1746,0.1773,0.1806,0.186,0.187,0.1892,0.1924,0.1927,0.1971,0.1983,0.201,0.2037,0.2034,0.2075,0.209,0.2091,0.2057,0.2054,0.2051,0.2045,0.2067,0,0,0,0,0,0.1664,0.1689,0.174,0.1759,0.1775,0.1819,0.1837,0.1862,0.1899,0.1914,0.195,0.1986,0.2017,0.2037,0.2069,0.2094,0.2106,0.2102,0.2099,0.2096,0.2097,0.2112,0.211,0.2128,0.2128,0.2128,0,0,0.1652,0.1687,0.1701,0.1752,0.178,0.1806,0.1831,0.1857,0.1877,0.1919,0.195,0.1977,0.2021,0.2048,0.2063,0.2071,0.2095,0.2095,0.2093,0.2096,0.2111,0.211,0.2108,0.2128,0.2128,0.2128,0,0,0.1642,0.1671,0.169,0.1718,0.176,0.179,0.1794,0.1843,0.1863,0.1895,0.1926,0.195,0.2004,0.2033,0.2054,0.2054,0.2077,0.2063,0.2048,0.2062,0.2061,0.206,0.2059,0.2059,0.2064,0.2064,0.2064,0,0.1622,0.1661,0.1697,0.1721,0.1743,0.1779,0.1799,0.1825,0.1876,0.189,0.1898,0.1965,0.1997,0.2032,0.2031,0.2048,0.2054,0.2058,0.2058,0.2057,0.2057,0.2057,0.2057,0.2062,0.2062,0.2062,0.2062,0,0.1633,0.166,0.167,0.1716,0.1739,0.1761,0.1801,0.182,0.1842,0.1871,0.1902,0.1941,0.1981,0.1991,0.2014,0.2029,0.2033,0.2049,0.2064,0.2052,0.2053,0.2054,0.2059,0.206,0.206,0.2061,0,0,0.1601,0.1666,0.1669,0.1691,0.174,0.1761,0.1785,0.1822,0.1837,0.1871,0.1892,0.1935,0.1949,0.1974,0.2,0.2012,0.2009,0.2027,0.2028,0.2022,0.2028,0.2016,0.2015,0.2024,0.2024,0.2024,0.2024,0,0.1599,0.1641,0.1674,0.1704,0.1729,0.1764,0.1784,0.1816,0.1843,0.1869,0.1899,0.1928,0.1945,0.196,0.1973,0.2006,0.2011,0.2007,0.2045,0.2045,0.2033,0.2016,0.2004,0.2002,0.2025,0.2025,0.2025,0,0.1602,0.1633,0.1665,0.171,0.1722,0.1739,0.1776,0.18,0.1837,0.1856,0.1882,0.1909,0.1935,0.1947,0.1984,0.1981,0.1998,0.2016,0.2017,0.2023,0.2035,0.2021,0.2002,0.2002,0.2026,0.2026,0.2026,0,0.1576,0.1625,0.165,0.1668,0.1721,0.1732,0.1755,0.1793,0.1813,0.1845,0.1859,0.1894,0.1913,0.194,0.1976,0.1981,0.2009,0.2024,0.2026,0.2025,0.2031,0.203,0.2015,0.2041,0.2041,0.2041,0.2041,0,0.157,0.1588,0.1639,0.1655,0.1676,0.1714,0.1734,0.1761,0.1793,0.1815,0.1847,0.1867,0.1913,0.1938,0.1966,0.1993,0.2001,0.2017,0.2025,0.2015,0.2013,0.2027,0.2029,0.2041,0.2041,0.2041,0.2041,0,0.1544,0.1579,0.1609,0.1656,0.1668,0.1682,0.1723,0.174,0.1768,0.1795,0.1803,0.1847,0.1879,0.1916,0.1961,0.198,0.2004,0.2014,0.199,0.1995,0.1995,0.1994,0.1988,0.1989,0.2014,0.2014,0.2014,0,0.1539,0.1553,0.1601,0.1618,0.1639,0.1665,0.1685,0.1723,0.1742,0.1785,0.1797,0.183,0.1859,0.1908,0.1944,0.1978,0.199,0.1986,0.1996,0.1985,0.199,0.1989,0.1991,0.1983,0.1983,0.1983,0.1982,0,0.1525,0.1541,0.1568,0.1601,0.1623,0.1651,0.1681,0.1692,0.1736,0.1756,0.1788,0.181,0.1854,0.1887,0.1925,0.195,0.1973,0.1979,0.1981,0.1971,0.1957,0.1964,0.1984,0.1979,0.1979,0.1979,0.198,0.198,0.151,0.1524,0.1559,0.1588,0.1614,0.164,0.1658,0.1687,0.1714,0.1751,0.1772,0.1803,0.184,0.1893,0.1916,0.1942,0.195,0.1953,0.1954,0.1955,0.1951,0.1952,0.1949,0.1949,0.1949,0.1949,0.1949,0,0.1498,0.1522,0.1548,0.1587,0.1609,0.1628,0.1661,0.1679,0.1705,0.1737,0.1764,0.18,0.1832,0.1869,0.1904,0.1917,0.1928,0.1925,0.1924,0.193,0.1942,0.1937,0.1915,0.1915,0.1915,0.1915,0.1915,0.1915,0.1494,0.1519,0.1539,0.1576,0.1601,0.1631,0.1648,0.1672,0.1697,0.1736,0.1762,0.1786,0.182,0.1856,0.1886,0.1897,0.1908,0.1901,0.1915,0.1926,0.1929,0.1932,0.1927,0.1903,0.1903,0.19,0.19,0.19]}]]